When you browse on this site, cookies collect data to enhance your experience and personalize the content and advertising you see.
Visit our Privacy Policy to learn more. By continuing to use the site, you agree to this use of cookies and data.
  • In Portugal
  • List of Countries
  • For 7 days
  • Water Temperature
  • Satellite Maps
  • Weather Map
  • Weather Widgets
  • user-avatar
    Login

    Hourly Weather Kobe

    Today, 17 February, Sunday

    Time Temperature Precipitation Wind Pressure Humidity
    00:00 +3°C° 0 mm 5 mps 758 mmHg 65%
    01:00 +3°C° 0 mm 5 mps 758 mmHg 66%
    02:00 +4°C° 0 mm 4 mps 758 mmHg 66%
    03:00 +4°C° 0 mm 4 mps 758 mmHg 67%
    04:00 +4°C° 0 mm 4 mps 758 mmHg 68%
    05:00 +4°C° 0 mm 4 mps 758 mmHg 69%
    06:00 +4°C° 0 mm 4 mps 759 mmHg 70%
    07:00 +4°C° 0.1 mm 4 mps 759 mmHg 68%
    08:00 +4°C° 0.1 mm 4 mps 759 mmHg 66%
    09:00 +5°C° 0 mm 3 mps 759 mmHg 59%
    10:00 +5°C° 0 mm 3 mps 759 mmHg 57%
    11:00 +7°C° 0 mm 2 mps 759 mmHg 55%
    12:00 +8°C° 0 mm 2 mps 759 mmHg 52%
    13:00 +8°C° 0.1 mm 3 mps 759 mmHg 52%
    14:00 +9°C° 0.1 mm 3 mps 759 mmHg 51%
    15:00 +8°C° 0 mm 2 mps 759 mmHg 51%
    16:00 +8°C° 0.1 mm 2 mps 759 mmHg 53%
    17:00 +7°C° 0.1 mm 3 mps 760 mmHg 55%
    18:00 +7°C° 0.1 mm 3 mps 760 mmHg 56%
    19:00 +7°C° 0 mm 3 mps 761 mmHg 56%
    20:00 +5°C° 0 mm 3 mps 761 mmHg 56%
    21:00 +5°C° 0 mm 3 mps 762 mmHg 56%
    22:00 +5°C° 0 mm 3 mps 762 mmHg 56%
    23:00 +5°C° 0 mm 3 mps 762 mmHg 56%

    Tomorrow, 18 February, Monday

    Time Temperature Precipitation Wind Pressure Humidity
    00:00 +4°C° 0 mm 3 mps 762 mmHg 57%
    01:00 +4°C° 0 mm 3 mps 763 mmHg 57%
    02:00 +4°C° 0 mm 3 mps 763 mmHg 58%
    03:00 +4°C° 0 mm 3 mps 763 mmHg 59%
    04:00 +4°C° 0 mm 3 mps 763 mmHg 59%
    05:00 +3°C° 0 mm 3 mps 763 mmHg 60%
    06:00 +4°C° 0 mm 2 mps 763 mmHg 60%
    07:00 +5°C° 0 mm 2 mps 764 mmHg 57%
    08:00 +6°C° 0 mm 2 mps 764 mmHg 53%
    09:00 +7°C° 0 mm 2 mps 764 mmHg 50%
    10:00 +8°C° 0 mm 2 mps 764 mmHg 46%
    11:00 +9°C° 0 mm 2 mps 764 mmHg 42%
    12:00 +12°C° 0 mm 2 mps 764 mmHg 38%
    13:00 +12°C° 0 mm 2 mps 764 mmHg 37%
    14:00 +12°C° 0 mm 1 mps 763 mmHg 36%
    15:00 +12°C° 0 mm 1 mps 763 mmHg 35%
    16:00 +12°C° 0 mm 1 mps 763 mmHg 37%
    17:00 +11°C° 0 mm 1 mps 764 mmHg 39%
    18:00 +10°C° 0 mm 1 mps 764 mmHg 41%
    19:00 +10°C° 0 mm 1 mps 764 mmHg 43%
    20:00 +9°C° 0 mm 1 mps 765 mmHg 46%
    21:00 +8°C° 0 mm 2 mps 765 mmHg 48%
    22:00 +8°C° 0 mm 2 mps 765 mmHg 52%
    23:00 +8°C° 0 mm 3 mps 765 mmHg 55%

    Day after tomorrow, 19 February, Tuesday

    Time Temperature Precipitation Wind Pressure Humidity
    00:00 +8°C° 0 mm 3 mps 765 mmHg 59%
    01:00 +8°C° 0 mm 3 mps 764 mmHg 60%
    02:00 +8°C° 0 mm 3 mps 764 mmHg 62%
    03:00 +8°C° 0 mm 3 mps 764 mmHg 63%
    04:00 +8°C° 0 mm 3 mps 764 mmHg 65%
    05:00 +7°C° 0 mm 4 mps 764 mmHg 67%
    06:00 +7°C° 0 mm 4 mps 764 mmHg 68%
    07:00 +8°C° 0.3 mm 4 mps 764 mmHg 70%
    08:00 +8°C° 0.3 mm 4 mps 764 mmHg 71%
    09:00 +10°C° 0.3 mm 4 mps 764 mmHg 72%
    10:00 +10°C° 1 mm 4 mps 764 mmHg 75%
    11:00 +10°C° 1 mm 4 mps 764 mmHg 78%
    12:00 +10°C° 1 mm 4 mps 763 mmHg 81%
    13:00 +11°C° 0.9 mm 4 mps 763 mmHg 82%
    14:00 +11°C° 0.9 mm 4 mps 762 mmHg 82%
    15:00 +11°C° 0.9 mm 4 mps 762 mmHg 83%
    16:00 +11°C° 0.6 mm 4 mps 761 mmHg 83%
    17:00 +11°C° 0.6 mm 4 mps 761 mmHg 84%
    18:00 +10°C° 0.6 mm 3 mps 761 mmHg 84%
    19:00 +10°C° 0.2 mm 3 mps 761 mmHg 85%
    20:00 +10°C° 0.2 mm 3 mps 761 mmHg 85%
    21:00 +10°C° 0.2 mm 3 mps 761 mmHg 85%
    22:00 +10°C° 0.1 mm 3 mps 761 mmHg 85%
    23:00 +10°C° 0.1 mm 3 mps 760 mmHg 86%

    20 February, Wednesday

    Time Temperature Precipitation Wind Pressure Humidity
    00:00 +10°C° 0.1 mm 3 mps 760 mmHg 86%
    01:00 +10°C° 0 mm 3 mps 760 mmHg 86%
    02:00 +10°C° 0 mm 3 mps 759 mmHg 87%
    03:00 +10°C° 0 mm 3 mps 759 mmHg 87%
    04:00 +10°C° 0 mm 2 mps 758 mmHg 87%
    05:00 +10°C° 0 mm 2 mps 758 mmHg 87%
    06:00 +10°C° 0 mm 2 mps 758 mmHg 87%
    07:00 +12°C° 0 mm 1 mps 758 mmHg 84%
    08:00 +13°C° 0 mm 1 mps 758 mmHg 81%
    09:00 +14°C° 0 mm 1 mps 758 mmHg 78%
    10:00 +14°C° 1.1 mm 1 mps 757 mmHg 81%
    11:00 +14°C° 1.1 mm 2 mps 757 mmHg 83%
    12:00 +13°C° 1.1 mm 3 mps 757 mmHg 86%
    13:00 +12°C° 1.3 mm 3 mps 757 mmHg 88%
    14:00 +12°C° 1.3 mm 3 mps 756 mmHg 90%
    15:00 +13°C° 1.3 mm 2 mps 756 mmHg 92%
    16:00 +12°C° 0.3 mm 3 mps 757 mmHg 92%
    17:00 +12°C° 0.3 mm 4 mps 757 mmHg 92%
    18:00 +12°C° 0.3 mm 4 mps 757 mmHg 92%
    19:00 +10°C° 0.2 mm 5 mps 758 mmHg 87%
    20:00 +10°C° 0.2 mm 6 mps 759 mmHg 82%
    21:00 +9°C° 0.2 mm 7 mps 759 mmHg 77%
    22:00 +8°C° 0 mm 7 mps 760 mmHg 75%
    23:00 +7°C° 0 mm 6 mps 760 mmHg 72%

    21 February, Thursday

    Time Temperature Precipitation Wind Pressure Humidity
    00:00 +7°C° 0 mm 5 mps 760 mmHg 70%
    01:00 +6°C° 0 mm 5 mps 760 mmHg 70%
    02:00 +6°C° 0 mm 5 mps 760 mmHg 70%
    03:00 +6°C° 0 mm 5 mps 760 mmHg 70%
    04:00 +6°C° 0 mm 5 mps 760 mmHg 70%
    05:00 +5°C° 0 mm 5 mps 760 mmHg 70%
    06:00 +4°C° 0 mm 6 mps 761 mmHg 70%
    07:00 +4°C° 0 mm 6 mps 761 mmHg 67%
    08:00 +5°C° 0 mm 6 mps 761 mmHg 64%
    09:00 +5°C° 0 mm 6 mps 762 mmHg 61%
    10:00 +7°C° 0 mm 6 mps 762 mmHg 58%
    11:00 +8°C° 0 mm 6 mps 762 mmHg 54%
    12:00 +9°C° 0 mm 6 mps 761 mmHg 51%
    13:00 +9°C° 0 mm 6 mps 761 mmHg 50%
    14:00 +9°C° 0 mm 6 mps 761 mmHg 49%
    15:00 +9°C° 0 mm 6 mps 761 mmHg 48%
    16:00 +8°C° 0 mm 6 mps 761 mmHg 50%
    17:00 +8°C° 0 mm 6 mps 761 mmHg 53%
    18:00 +6°C° 0 mm 7 mps 761 mmHg 56%
    19:00 +5°C° 0 mm 6 mps 762 mmHg 58%
    20:00 +5°C° 0 mm 6 mps 762 mmHg 59%
    21:00 +5°C° 0 mm 5 mps 763 mmHg 61%
    22:00 +5°C° 0 mm 5 mps 762 mmHg 62%
    23:00 +5°C° 0 mm 5 mps 762 mmHg 63%

    22 February, Friday

    Time Temperature Precipitation Wind Pressure Humidity
    00:00 +5°C° 0 mm 5 mps 762 mmHg 65%
    01:00 +3°C° 0 mm 5 mps 762 mmHg 65%
    02:00 +4°C° 0 mm 4 mps 762 mmHg 66%
    03:00 +4°C° 0 mm 4 mps 762 mmHg 66%
    04:00 +4°C° 0 mm 4 mps 762 mmHg 67%
    05:00 +4°C° 0 mm 4 mps 762 mmHg 67%
    06:00 +4°C° 0 mm 4 mps 762 mmHg 67%
    07:00 +5°C° 0 mm 4 mps 762 mmHg 65%
    08:00 +7°C° 0 mm 3 mps 762 mmHg 63%
    09:00 +8°C° 0 mm 3 mps 762 mmHg 60%
    10:00 +9°C° 0 mm 3 mps 761 mmHg 56%
    11:00 +10°C° 0 mm 3 mps 761 mmHg 52%
    12:00 +12°C° 0 mm 2 mps 760 mmHg 48%
    13:00 +12°C° 0 mm 2 mps 759 mmHg 47%
    14:00 +12°C° 0 mm 2 mps 758 mmHg 46%
    15:00 +12°C° 0 mm 2 mps 758 mmHg 44%
    16:00 +12°C° 0 mm 2 mps 758 mmHg 46%
    17:00 +10°C° 0 mm 2 mps 758 mmHg 48%
    18:00 +10°C° 0 mm 2 mps 757 mmHg 51%
    19:00 +9°C° 0.6 mm 2 mps 757 mmHg 57%
    20:00 +9°C° 0.6 mm 2 mps 757 mmHg 64%
    21:00 +9°C° 0.6 mm 1 mps 757 mmHg 70%
    22:00 +8°C° 1 mm 3 mps 757 mmHg 72%
    23:00 +7°C° 1 mm 5 mps 756 mmHg 75%
    Show more